User: anonymous   Login
Location: Girdwood
(60.9430°N, 149.1660°W)
Time: 14:49:49
(UTC-08:00)
Language:

Iridium 86 - Orbit

View from above orbital plane
View from above orbital plane
View from above satellite
View from above satellite

Ground track
Ground track

The orbit data is extracted from the following two-line orbital elements,

1 25528U 98066B   14298.72624645  .00000595  00000-0  20555-3 0  1992
2 25528 086.3990 033.4339 0001941 113.2562 246.8838 14.34213821840986
Epoch (UTC): 25 October 2014 17:25:47
Eccentricity: 0.0001941
inclination: 86.3990°
perigee height: 776 km
apogee height: 779 km
right ascension of ascending node: 33.4339°
argument of perigee: 113.2562°
revolutions per day: 14.34213821
mean anomaly at epoch: 246.8838°
orbit number at epoch: 84098

The dashed part of the orbit path shows where the satellite is in the earth's shadow,  

DLR